SCP
0 0 0 0 0 0 0 0 -0 -0 -0 -0 0 0 0 -0 -0 0 -0 0 0 0 0 0 0 0 0 0 0 0 0 0 0 1 0 0 0 0 0 0 0 0 0
0 0 0 0 0 0 0 0 0 0 0 0 -0 -0 -0 -0 -0 -0 -0 -0 0 0 0 0 0 0 0 0 1 0 0 0 0 0 0 0 0 0 0 0 0 0 0
0 -0 0 0 0 0 0 0 0 -0 -0 -0 -0 -0 -0 -0 -0 -0 -0 -0 -0 -0 -0 0 0 0 0 0 0 0 0 0 0 0 0 0 0 0 0 0 0 0 0
-0 0 0 0 0 0 0 0 0 -0 0 -0 -0 -0 -0 -0 -0 -0 -0 -0 -0 -0 -0 -0 0 0 0 0 0 0 0 0 0 0 0 0 0 0 0 0 0 0 0
0 0 0 0 0 0 0 0 0 0 0 0 0 0 -0 -0 -0 -0 -0 -0 -0 -0 -0 -0 -0 0 -0 0 0 0 0 0 0 0 0 0 0 0 0 0 0 0 0
0 0 0 0 0 0 0 0 0 0 0 0 0 0 0 0 0 -0 -0 -0 -0 -0 0 0 0 0 -0 -0 0 0 0 0 0 0 0 0 0 0 0 0 0 0 0
0 0 0 0 0 0 0 0 0 0 0 0 0 0 0 0 0 0 0 0 0 0 0 0 0 0 0 0 0 0 0 0 0 0 0 0 0 0 0 0 0 0 0
0 0 0 0 0 0 0 0 0 0 0 0 0 0 0 0 0 0 0 0 0 0 0 0 0 0 0 0 0 0 0 0 0 0 0 0 0 0 0 0 0 0 0
0 0 0 0 0 0 0 0 0 0 0 0 0 0 0 0 0 0 0 0 0 0 0 0 0 0 0 0 0 0 0 0 0 0 0 0 0 0 0 0 0 0 0
0 0 0 0 0 0 0 0 0 0 0 0 0 0 0 0 0 0 0 0 0 0 0 0 0 0 0 0 0 0 0 0 0 0 0 0 0 0 0 0 0 0 0
0 0 0 0 0 0 0 0 0 0 0 0 0 0 0 0 0 0 0 0 0 0 0 0 0 0 0 0 0 0 0 0 0 0 0 0 0 0 0 0 0 0 0
0 0 0 0 0 0 0 0 0 0 0 0 0 0 0 0 0 0 0 0 0 0 0 0 0 0 0 0 0 0 -0 -0 0 0 0 0 0 0 0 0 0 0 0
0 0 0 0 0 0 0 0 0 0 0 0 0 0 0 0 0 0 0 0 0 0 0 0 0 0 0 0 0 0 -0 0 0 0 0 0 0 0 0 0 0 0 0
0 0 0 0 0 0 0 0 0 0 0 0 0 0 0 0 0 0 0 0 0 0 0 0 0 0 0 0 0 0 0 0 0 0 0 0 0 0 0 0 0 0 0
0 0 0 0 0 0 0 0 0 0 0 0 0 0 0 0 0 0 0 0 0 0 0 0 0 0 0 0 0 0 0 0 0 0 0 0 0 0 0 0 0 0 0
0 0 0 0 0 0 0 0 0 0 0 0 0 0 0 0 0 0 0 0 0 -0 0 0 0 0 0 0 0 0 0 0 0 0 0 0 0 0 0 0 0 0 0
0 0 0 0 0 0 0 0 0 0 0 0 0 0 0 0 0 0 0 0 0 0 0 0 0 0 0 0 0 0 0 0 0 0 0 0 0 0 0 0 0 0 0
0 0 0 0 0 0 0 0 0 0 0 0 0 0 0 0 0 0 0 0 0 0 0 0 0 0 0 0 0 0 0 0 0 0 0 0 0 0 0 0 0 0 0
0 0 0 0 0 0 0 0 0 0 0 0 0 0 0 0 0 0 0 0 0 0 0 0 0 0 0 0 0 0 0 0 0 0 0 0 0 0 0 0 0 0 0
0 0 0 0 0 0 0 0 0 0 0 0 0 0 0 0 0 0 0 0 0 0 0 0 0 0 0 0 0 0 0 0 0 0 0 0 0 0 0 0 0 0 0
0 0 0 0 0 0 0 0 0 0 0 0 0 0 0 0 0 0 0 0 0 0 0 0 0 0 0 0 0 0 0 0 0 0 0 0 0 0 0 0 -0 0 0
0 0 0 0 0 0 0 0 0 0 0 0 0 0 0 0 0 0 0 0 0 0 0 0 0 0 0 0 0 0 0 0 0 0 0 0 0 0 0 0 0 0 0
0 0 0 0 0 0 0 0 0 0 0 0 0 0 0 0 0 0 0 0 0 0 0 0 0 0 0 0 0 0 0 0 0 0 0 0 0 0 0 0 0 0 0
0 0 0 0 0 0 0 0 0 0 0 0 0 0 0 0 0 0 0 0 0 0 0 0 0 0 0 0 0 0 0 0 0 0 0 0 0 0 0 0 0 0 0
0 0 0 0 0 0 0 0 0 0 0 0 0 0 0 0 0 0 0 0 0 0 0 0 0 0 0 0 0 0 0 0 0 0 0 0 0 0 0 0 0 0 0
0 0 0 0 0 0 0 0 0 0 0 0 0 0 0 0 0 0 0 0 0 0 0 0 0 0 0 0 0 0 0 0 0 0 0 0 0 0 0 0 0 0 0
Wind_Speed_500mb
9 3 3 6 11 13 13 15 17 17 20 23 23 18 9 7 8 4 6 8 7 11 12 19 24 26 24 26 27 26 33 37 38 36 36 35 40 44 44 34 31 32 28
10 5 3 5 8 9 11 14 16 17 18 19 22 23 18 13 9 8 6 1 3 5 8 14 19 23 25 29 33 34 34 35 38 33 33 31 33 26 25 27 22 17 16
11 8 5 4 5 5 8 13 13 15 16 16 18 20 20 19 16 13 9 6 4 1 2 5 8 13 16 20 21 24 32 27 16 15 19 24 31 20 20 10 5 7 13
14 11 7 4 1 3 7 10 8 11 13 15 17 19 19 19 20 17 14 11 8 4 3 2 4 7 11 4 4 6 5 12 12 6 6 11 8 8 5 8 11 10 9
18 11 8 8 6 5 8 5 3 5 7 9 12 14 15 17 21 19 19 17 16 13 10 6 4 3 4 3 3 5 10 8 12 13 6 7 8 3 4 6 9 12 10
15 13 13 15 14 14 10 5 2 3 2 4 8 11 13 14 16 14 12 11 12 12 13 14 12 11 9 8 7 7 4 4 5 6 6 5 2 3 4 7 6 5 4
12 15 20 23 22 26 18 12 9 8 4 2 5 9 11 13 15 13 11 10 10 9 10 12 13 16 16 16 15 13 11 11 10 5 4 6 3 6 4 4 5 5 2
23 29 25 32 31 39 26 20 18 15 11 9 6 6 7 10 14 15 14 11 10 13 18 19 21 22 24 23 19 17 19 22 20 19 18 18 16 17 13 10 11 9 6
24 26 29 39 37 43 34 31 24 21 15 11 8 9 9 8 11 13 16 14 14 16 17 19 17 16 17 19 15 15 17 20 20 18 18 17 15 13 13 8 9 10 4
25 29 32 28 41 39 41 36 29 25 20 18 15 13 8 7 10 10 15 12 15 13 13 14 12 12 12 10 11 14 17 17 16 16 16 15 14 13 9 10 11 4 1
19 19 20 18 32 35 41 38 32 30 26 22 19 14 11 9 6 6 10 11 12 16 17 13 12 9 5 4 7 8 10 13 14 14 14 15 17 18 16 13 13 10 6
11 11 12 16 23 29 39 41 35 34 30 25 24 23 20 18 14 11 13 10 13 9 11 11 8 7 6 6 5 10 17 21 7 7 9 11 11 12 14 15 13 12 10
4 3 3 7 10 20 29 35 31 35 35 31 28 25 21 15 12 12 14 14 12 11 10 7 9 10 10 9 11 13 18 7 8 7 9 10 11 11 14 15 15 23 16
6 5 6 4 6 9 14 16 20 19 18 16 20 20 18 16 17 17 18 17 14 11 11 13 12 11 10 12 13 11 11 11 10 9 8 9 9 9 9 9 7 5 4
12 11 11 11 10 9 9 14 15 15 16 17 18 16 15 19 20 18 16 13 13 10 10 9 7 6 7 8 8 8 8 8 7 8 7 7 7 7 7 6 6 5 3
18 19 18 17 17 14 12 12 14 13 16 15 13 12 14 15 19 19 17 15 14 14 7 5 4 5 6 5 5 4 4 9 6 6 6 5 5 4 4 5 5 5 4
22 23 23 22 22 21 20 16 12 13 13 12 14 13 13 16 19 16 13 12 10 10 3 7 7 5 4 3 3 5 6 8 8 4 3 4 4 3 7 2 3 3 3
26 30 22 21 18 17 15 14 12 11 9 10 12 15 17 16 17 16 14 10 4 5 7 6 6 5 4 3 3 4 6 5 6 4 2 3 3 1 0 1 2 1 1
27 26 26 25 23 22 19 16 12 10 10 11 11 12 14 15 17 16 20 10 8 7 6 7 8 7 6 5 8 9 11 10 10 7 4 1 2 2 4 3 5 3 5
34 38 31 25 23 20 18 15 13 11 8 8 9 10 12 13 12 12 10 9 8 7 8 10 12 11 11 9 11 10 9 14 13 10 10 7 5 4 6 8 7 7 7
26 25 26 19 16 14 12 11 10 9 6 4 7 14 23 14 12 12 12 11 10 11 13 15 16 17 15 15 12 13 14 15 17 16 15 11 10 7 10 11 11 9 8
19 15 13 10 7 5 3 3 3 3 2 1 4 10 12 15 12 13 13 13 15 15 14 16 16 19 21 20 19 17 17 18 18 19 18 17 15 14 14 14 14 12 13
12 8 4 0 4 9 10 9 12 11 9 8 8 10 12 17 18 18 18 17 18 18 18 17 17 19 20 23 22 22 22 23 23 22 22 20 20 18 17 17 17 16 16
7 6 7 9 11 14 17 18 19 21 19 16 15 14 17 19 21 23 23 22 23 21 20 18 19 20 21 23 22 21 23 24 24 24 26 24 23 23 22 21 21 21 21
12 9 10 12 15 18 20 21 22 22 24 22 22 21 23 25 27 27 27 28 27 26 26 25 22 21 24 29 28 25 31 37 29 25 21 23 25 26 25 24 23 24 24
2 5 8 14 16 19 23 21 19 17 17 21 24 24 27 30 34 37 36 36 36 33 33 32 31 31 27 28 31 34 44 42 30 27 23 24 25 25 25 27 28 28 27
Wind_Direction_500mb
155 205 22 34 16 13 7 5 4 6 17 23 26 22 21 14 9 331 276 266 242 250 242 241 245 246 246 249 253 249 254 245 251 258 264 275 279 281 285 278 268 262 257
175 194 76 49 32 22 12 13 12 21 29 27 34 38 45 56 60 48 26 12 217 230 243 247 249 252 257 253 256 262 265 262 267 265 279 293 268 273 258 257 236 229 229
177 199 151 102 25 5 26 19 24 29 41 44 43 47 49 54 61 64 66 68 52 74 220 235 242 246 256 261 263 269 272 259 262 265 271 258 261 254 243 212 231 314 323
188 188 173 162 255 333 357 21 26 41 47 46 52 55 58 69 69 64 61 65 66 72 77 14 28 35 56 141 220 275 281 245 241 230 217 117 81 134 260 264 257 271 279
199 184 204 232 229 271 339 10 14 22 37 57 62 65 72 84 93 77 71 71 69 70 72 67 74 90 74 65 107 125 141 92 100 127 147 149 148 173 269 287 271 264 247
205 210 225 234 233 253 289 300 265 263 359 67 77 82 81 83 79 76 73 73 77 80 81 83 87 84 84 90 107 126 151 139 136 166 193 216 218 269 308 313 303 238 314
238 240 242 242 236 250 255 253 219 232 230 229 100 94 90 85 80 80 86 78 77 77 71 71 90 95 93 93 94 95 98 109 114 116 159 177 116 101 89 79 106 133 76
264 251 240 243 245 245 244 238 230 227 223 212 181 125 113 99 92 86 81 86 99 107 97 97 103 104 99 89 90 96 99 105 102 96 96 102 91 87 87 93 88 70 77
266 267 258 236 241 246 242 231 223 228 223 220 195 159 148 132 112 97 94 98 111 116 118 120 114 112 107 103 95 91 97 93 92 86 83 82 80 76 96 78 60 96 58
267 271 266 249 241 248 236 226 225 222 219 218 211 189 162 140 134 111 110 122 121 118 127 129 123 115 101 88 96 101 107 109 99 76 63 59 53 54 58 89 56 66 21
262 267 268 247 235 238 236 225 221 212 219 217 216 203 191 185 169 166 152 145 141 142 151 139 133 111 93 89 123 119 112 99 77 72 57 53 54 48 44 51 83 70 47
257 264 272 242 239 235 235 210 217 218 211 211 207 201 197 194 200 212 200 187 178 173 160 144 124 90 80 81 94 99 91 84 87 79 70 60 57 57 45 55 65 79 104
210 240 225 218 233 225 222 213 221 210 215 221 213 201 193 203 206 203 190 172 170 177 177 162 118 88 73 88 93 96 78 106 106 94 77 64 58 63 55 37 42 48 59
149 181 189 170 173 193 207 218 213 206 212 215 208 198 193 197 186 172 173 172 171 175 162 134 119 119 129 86 73 85 111 115 112 96 79 67 61 64 62 69 63 83 62
138 132 132 132 122 143 164 177 183 195 189 197 188 189 196 181 170 170 174 175 159 151 121 107 109 126 106 102 109 106 96 90 98 91 74 58 57 58 64 60 65 55 64
140 135 131 122 117 118 123 142 152 163 171 166 173 179 190 178 172 166 160 152 145 146 136 183 179 161 143 150 138 141 128 115 106 83 66 58 58 82 69 41 59 77 66
131 121 111 104 104 100 93 92 107 114 130 151 166 169 161 161 149 143 147 158 166 142 150 195 188 185 200 193 181 177 170 171 132 117 69 60 63 29 65 67 61 70 45
134 120 110 108 106 102 105 104 104 106 110 128 147 146 150 152 150 148 144 115 116 113 189 189 205 213 231 209 206 196 201 167 185 159 115 80 53 73 236 28 27 31 309
113 113 108 105 107 104 96 96 104 119 137 145 146 156 160 161 158 156 141 125 204 200 205 226 227 227 224 227 229 218 209 217 211 213 214 206 308 302 278 264 274 276 202
124 119 112 102 95 95 92 87 83 92 111 151 166 182 183 170 186 202 203 211 222 233 244 244 249 237 239 233 241 239 240 246 238 231 229 242 269 282 266 256 243 238 249
123 113 121 106 102 96 88 78 72 74 83 132 190 197 195 190 214 214 224 244 246 257 260 254 252 259 246 247 240 249 248 245 242 234 237 248 254 258 275 254 238 248 231
136 128 123 116 104 76 38 7 358 351 9 247 216 237 211 199 219 231 237 245 256 261 259 258 258 257 254 248 249 249 247 251 248 244 242 243 250 259 264 251 238 239 233
149 149 141 324 304 293 310 292 278 274 275 272 251 244 256 234 236 242 247 255 254 253 256 258 262 257 251 243 246 248 249 253 254 253 250 246 249 253 258 248 240 239 238
198 233 264 284 291 297 298 293 285 271 256 263 266 257 252 251 248 245 243 246 248 247 248 255 259 255 245 243 248 254 261 257 252 253 247 239 243 256 255 242 240 240 239
242 275 283 291 303 305 304 303 290 279 268 266 266 266 267 263 259 258 256 252 248 247 248 249 252 259 255 244 244 245 253 254 254 238 241 241 242 246 243 242 241 239 240
185 263 291 299 305 303 308 315 303 287 272 267 273 275 277 278 276 271 263 259 256 255 255 256 258 251 252 255 252 249 251 265 271 260 252 244 247 250 248 245 238 237 242
Wind_Speed_850mb
9 3 3 6 11 13 13 15 17 17 20 23 23 18 9 7 8 4 6 8 7 11 12 19 24 26 24 26 27 26 33 37 38 36 36 35 40 44 44 34 31 32 28
10 5 3 5 8 9 11 14 16 17 18 19 22 23 18 13 9 8 6 1 3 5 8 14 19 23 25 29 33 34 34 35 38 33 33 31 33 26 25 27 22 17 16
11 8 5 4 5 5 8 13 13 15 16 16 18 20 20 19 16 13 9 6 4 1 2 5 8 13 16 20 21 24 32 27 16 15 19 24 31 20 20 10 5 7 13
14 11 7 4 1 3 7 10 8 11 13 15 17 19 19 19 20 17 14 11 8 4 3 2 4 7 11 4 4 6 5 12 12 6 6 11 8 8 5 8 11 10 9
18 11 8 8 6 5 8 5 3 5 7 9 12 14 15 17 21 19 19 17 16 13 10 6 4 3 4 3 3 5 10 8 12 13 6 7 8 3 4 6 9 12 10
15 13 13 15 14 14 10 5 2 3 2 4 8 11 13 14 16 14 12 11 12 12 13 14 12 11 9 8 7 7 4 4 5 6 6 5 2 3 4 7 6 5 4
12 15 20 23 22 26 18 12 9 8 4 2 5 9 11 13 15 13 11 10 10 9 10 12 13 16 16 16 15 13 11 11 10 5 4 6 3 6 4 4 5 5 2
23 29 25 32 31 39 26 20 18 15 11 9 6 6 7 10 14 15 14 11 10 13 18 19 21 22 24 23 19 17 19 22 20 19 18 18 16 17 13 10 11 9 6
24 26 29 39 37 43 34 31 24 21 15 11 8 9 9 8 11 13 16 14 14 16 17 19 17 16 17 19 15 15 17 20 20 18 18 17 15 13 13 8 9 10 4
25 29 32 28 41 39 41 36 29 25 20 18 15 13 8 7 10 10 15 12 15 13 13 14 12 12 12 10 11 14 17 17 16 16 16 15 14 13 9 10 11 4 1
19 19 20 18 32 35 41 38 32 30 26 22 19 14 11 9 6 6 10 11 12 16 17 13 12 9 5 4 7 8 10 13 14 14 14 15 17 18 16 13 13 10 6
11 11 12 16 23 29 39 41 35 34 30 25 24 23 20 18 14 11 13 10 13 9 11 11 8 7 6 6 5 10 17 21 7 7 9 11 11 12 14 15 13 12 10
4 3 3 7 10 20 29 35 31 35 35 31 28 25 21 15 12 12 14 14 12 11 10 7 9 10 10 9 11 13 18 7 8 7 9 10 11 11 14 15 15 23 16
6 5 6 4 6 9 14 16 20 19 18 16 20 20 18 16 17 17 18 17 14 11 11 13 12 11 10 12 13 11 11 11 10 9 8 9 9 9 9 9 7 5 4
12 11 11 11 10 9 9 14 15 15 16 17 18 16 15 19 20 18 16 13 13 10 10 9 7 6 7 8 8 8 8 8 7 8 7 7 7 7 7 6 6 5 3
18 19 18 17 17 14 12 12 14 13 16 15 13 12 14 15 19 19 17 15 14 14 7 5 4 5 6 5 5 4 4 9 6 6 6 5 5 4 4 5 5 5 4
22 23 23 22 22 21 20 16 12 13 13 12 14 13 13 16 19 16 13 12 10 10 3 7 7 5 4 3 3 5 6 8 8 4 3 4 4 3 7 2 3 3 3
26 30 22 21 18 17 15 14 12 11 9 10 12 15 17 16 17 16 14 10 4 5 7 6 6 5 4 3 3 4 6 5 6 4 2 3 3 1 0 1 2 1 1
27 26 26 25 23 22 19 16 12 10 10 11 11 12 14 15 17 16 20 10 8 7 6 7 8 7 6 5 8 9 11 10 10 7 4 1 2 2 4 3 5 3 5
34 38 31 25 23 20 18 15 13 11 8 8 9 10 12 13 12 12 10 9 8 7 8 10 12 11 11 9 11 10 9 14 13 10 10 7 5 4 6 8 7 7 7
26 25 26 19 16 14 12 11 10 9 6 4 7 14 23 14 12 12 12 11 10 11 13 15 16 17 15 15 12 13 14 15 17 16 15 11 10 7 10 11 11 9 8
19 15 13 10 7 5 3 3 3 3 2 1 4 10 12 15 12 13 13 13 15 15 14 16 16 19 21 20 19 17 17 18 18 19 18 17 15 14 14 14 14 12 13
12 8 4 0 4 9 10 9 12 11 9 8 8 10 12 17 18 18 18 17 18 18 18 17 17 19 20 23 22 22 22 23 23 22 22 20 20 18 17 17 17 16 16
7 6 7 9 11 14 17 18 19 21 19 16 15 14 17 19 21 23 23 22 23 21 20 18 19 20 21 23 22 21 23 24 24 24 26 24 23 23 22 21 21 21 21
12 9 10 12 15 18 20 21 22 22 24 22 22 21 23 25 27 27 27 28 27 26 26 25 22 21 24 29 28 25 31 37 29 25 21 23 25 26 25 24 23 24 24
2 5 8 14 16 19 23 21 19 17 17 21 24 24 27 30 34 37 36 36 36 33 33 32 31 31 27 28 31 34 44 42 30 27 23 24 25 25 25 27 28 28 27
Wind_Direction_850mb
155 205 22 34 16 13 7 5 4 6 17 23 26 22 21 14 9 331 276 266 242 250 242 241 245 246 246 249 253 249 254 245 251 258 264 275 279 281 285 278 268 262 257
175 194 76 49 32 22 12 13 12 21 29 27 34 38 45 56 60 48 26 12 217 230 243 247 249 252 257 253 256 262 265 262 267 265 279 293 268 273 258 257 236 229 229
177 199 151 102 25 5 26 19 24 29 41 44 43 47 49 54 61 64 66 68 52 74 220 235 242 246 256 261 263 269 272 259 262 265 271 258 261 254 243 212 231 314 323
188 188 173 162 255 333 357 21 26 41 47 46 52 55 58 69 69 64 61 65 66 72 77 14 28 35 56 141 220 275 281 245 241 230 217 117 81 134 260 264 257 271 279
199 184 204 232 229 271 339 10 14 22 37 57 62 65 72 84 93 77 71 71 69 70 72 67 74 90 74 65 107 125 141 92 100 127 147 149 148 173 269 287 271 264 247
205 210 225 234 233 253 289 300 265 263 359 67 77 82 81 83 79 76 73 73 77 80 81 83 87 84 84 90 107 126 151 139 136 166 193 216 218 269 308 313 303 238 314
238 240 242 242 236 250 255 253 219 232 230 229 100 94 90 85 80 80 86 78 77 77 71 71 90 95 93 93 94 95 98 109 114 116 159 177 116 101 89 79 106 133 76
264 251 240 243 245 245 244 238 230 227 223 212 181 125 113 99 92 86 81 86 99 107 97 97 103 104 99 89 90 96 99 105 102 96 96 102 91 87 87 93 88 70 77
266 267 258 236 241 246 242 231 223 228 223 220 195 159 148 132 112 97 94 98 111 116 118 120 114 112 107 103 95 91 97 93 92 86 83 82 80 76 96 78 60 96 58
267 271 266 249 241 248 236 226 225 222 219 218 211 189 162 140 134 111 110 122 121 118 127 129 123 115 101 88 96 101 107 109 99 76 63 59 53 54 58 89 56 66 21
262 267 268 247 235 238 236 225 221 212 219 217 216 203 191 185 169 166 152 145 141 142 151 139 133 111 93 89 123 119 112 99 77 72 57 53 54 48 44 51 83 70 47
257 264 272 242 239 235 235 210 217 218 211 211 207 201 197 194 200 212 200 187 178 173 160 144 124 90 80 81 94 99 91 84 87 79 70 60 57 57 45 55 65 79 104
210 240 225 218 233 225 222 213 221 210 215 221 213 201 193 203 206 203 190 172 170 177 177 162 118 88 73 88 93 96 78 106 106 94 77 64 58 63 55 37 42 48 59
149 181 189 170 173 193 207 218 213 206 212 215 208 198 193 197 186 172 173 172 171 175 162 134 119 119 129 86 73 85 111 115 112 96 79 67 61 64 62 69 63 83 62
138 132 132 132 122 143 164 177 183 195 189 197 188 189 196 181 170 170 174 175 159 151 121 107 109 126 106 102 109 106 96 90 98 91 74 58 57 58 64 60 65 55 64
140 135 131 122 117 118 123 142 152 163 171 166 173 179 190 178 172 166 160 152 145 146 136 183 179 161 143 150 138 141 128 115 106 83 66 58 58 82 69 41 59 77 66
131 121 111 104 104 100 93 92 107 114 130 151 166 169 161 161 149 143 147 158 166 142 150 195 188 185 200 193 181 177 170 171 132 117 69 60 63 29 65 67 61 70 45
134 120 110 108 106 102 105 104 104 106 110 128 147 146 150 152 150 148 144 115 116 113 189 189 205 213 231 209 206 196 201 167 185 159 115 80 53 73 236 28 27 31 309
113 113 108 105 107 104 96 96 104 119 137 145 146 156 160 161 158 156 141 125 204 200 205 226 227 227 224 227 229 218 209 217 211 213 214 206 308 302 278 264 274 276 202
124 119 112 102 95 95 92 87 83 92 111 151 166 182 183 170 186 202 203 211 222 233 244 244 249 237 239 233 241 239 240 246 238 231 229 242 269 282 266 256 243 238 249
123 113 121 106 102 96 88 78 72 74 83 132 190 197 195 190 214 214 224 244 246 257 260 254 252 259 246 247 240 249 248 245 242 234 237 248 254 258 275 254 238 248 231
136 128 123 116 104 76 38 7 358 351 9 247 216 237 211 199 219 231 237 245 256 261 259 258 258 257 254 248 249 249 247 251 248 244 242 243 250 259 264 251 238 239 233
149 149 141 324 304 293 310 292 278 274 275 272 251 244 256 234 236 242 247 255 254 253 256 258 262 257 251 243 246 248 249 253 254 253 250 246 249 253 258 248 240 239 238
198 233 264 284 291 297 298 293 285 271 256 263 266 257 252 251 248 245 243 246 248 247 248 255 259 255 245 243 248 254 261 257 252 253 247 239 243 256 255 242 240 240 239
242 275 283 291 303 305 304 303 290 279 268 266 266 266 267 263 259 258 256 252 248 247 248 249 252 259 255 244 244 245 253 254 254 238 241 241 242 246 243 242 241 239 240
185 263 291 299 305 303 308 315 303 287 272 267 273 275 277 278 276 271 263 259 256 255 255 256 258 251 252 255 252 249 251 265 271 260 252 244 247 250 248 245 238 237 242